星链-2127 (STARLINK-2127 )

导读 | 豆包AI

STARLINK-2127是美国SpaceX公司星链计划(Starlink)第16批次发射任务中的卫星,于2021年1月20日发射入轨,属于Starlink第一代低轨互联网通信卫星,部署在近地轨道。该卫星旨在为全球提供高速宽带互联网服务,尤其覆盖偏远地区,不过它已在2025年3月15日前后再入地球大气层,完成服役周期。

Basic Information
目录编号:
47403
目录名称:
STARLINK-2127
国际标识:
2021-005BG
轨道中心:
EARTH
卫星名称:
星链-2127
卫星全名:
星链-2127 (STARLINK-2127 )
卫星状态:
已陨落 最后检测时间 2025-03-15
发射日期:
2021-01-20 UTC
国别 :
美国 (US)
星等 :
--
Orbit Information
数据来源 国际轨道数据
星历时间: 2025-03-15T11:37:46+0800
轨道信息已过期411天
半长轴: 6551.479km
偏心率: 0.0005312
轨道倾角: 53.028°
近地点辐角 357.010°
升交点赤经 172.583°
平近点角 70.885°
近地点: 169.863km
远地点: 176.825km
周期: 87.957分钟
每日圈数: 16.371701
Detailed Information
固有亮度:
5
最大亮度:
2.5
卫星平台:
Starlink V1.0
覆盖范围:
全球
运营商:
太空探索技术公司
运营商所在国:
美国
制造商(研发单位):
太空探索技术公司
制造商所在国:
美国
使用方式:
暂无
Satellite Introduction
星链(Starlink)计划是由太空探索技术公司(SpaceX)提出的一个巨型低轨卫星互联网星座项目,计划在2019年至2024年间在太空搭建由约1.2万颗卫星组成的“星链”网络,其中1584颗将部署在地球上空550千米处的近地轨道,并从2020年开始工作。该卫星仍在工作。